Cordoba, Spain

4:27 PM CET on March 23, 2017 (GMT +0100)
Cordoba

Weather History for LEBA - December, 2013

Change the Weather History Date:

Sunday, December 1, 2013

  Actual Average Record
Temperature  
Mean Temperature 46 °F -  
Max Temperature 60 °F - - ()
Min Temperature 32 °F - - ()
Degree Days  
Heating Degree Days 19    
Moisture  
Dew Point 28 °F    
Average Humidity 47    
Maximum Humidity 85    
Minimum Humidity 17    
Precipitation  
Precipitation 0.00 in 0.11 in - ()
Sea Level Pressure  
Sea Level Pressure 30.05 in    
Wind  
Wind Speed 4 mph ()    
Max Wind Speed 13 mph    
Max Gust Speed -    
T = Trace of Precipitation, MM = Missing Value Source: Averaged Metar Reports

Daily Weather History Graph

Daily Weather History Graph

Search for Another Location

Airport or City:

Trip Planner

Search our weather history database for the weather conditions in past years. The results will help you decide how hot, cold, wet, or windy it might be!

Date:

Astronomy

Dec. 01, 2013 Rise Set
Actual Time 8:16 AM CET 6:00 PM CET
Civil Twilight 7:47 AM CET 6:29 PM CET
Nautical Twilight 7:14 AM CET 7:01 PM CET
Astronomical Twilight 6:42 AM CET 7:33 PM CET
Moon 6:19 AM CET (12/1) 4:57 PM CET (12/1)
Length of Visible Light 10h 42m
Length of Day
9h 44m
Waning Crescent, 3% of the Moon is Illuminated
Dec 1
Waning Crescent
Dec 3
New
Dec 9
First Quarter
Dec 17
Full
Dec 25
Last Quarter

Hourly Weather History & Observations

Time (CET) Temp. Windchill Dew Point Humidity Pressure Visibility Wind Dir Wind Speed Gust Speed Precip Events Conditions
12:00 AM 33 °F - 28 °F 74% 30.04 in - Calm Calm - -  
1:00 AM 33 °F - 30 °F 85% 30.04 in - East 2.3 mph - -  
2:00 AM 33 °F - 29 °F 80% 30.02 in - ENE 2.3 mph - -  
3:00 AM 35 °F - 30 °F 74% 30.03 in - Calm Calm - -  
5:00 AM 32 °F - 27 °F 74% 30.03 in - Calm Calm - -  
6:00 AM 33 °F - 26 °F 68% 30.04 in - NNE 4.6 mph - -  
7:00 AM 32 °F - 26 °F 70% 30.05 in 25 mi East 3.5 mph - -  
7:00 AM 33.8 °F 30.8 °F 26.6 °F 75% 30.01 in - East 3.5 mph - N/A   Clear
8:00 AM 33 °F - 26 °F 65% 30.06 in - East 6.9 mph - -  
8:00 AM 39.2 °F 35.0 °F 24.8 °F 56% 30.04 in - East 5.8 mph - N/A   Clear
9:00 AM 39 °F - 26 °F 47% 30.08 in - ESE 5.8 mph - -  
9:00 AM 41.0 °F 38.0 °F 24.8 °F 53% 30.06 in - ESE 4.6 mph - N/A   Clear
10:00 AM 44.6 °F 42.2 °F 26.6 °F 49% 30.06 in - East 4.6 mph - N/A   Clear
11:00 AM 48 °F - 26 °F 29% 30.10 in - East 6.9 mph - -  
11:00 AM 46.4 °F 43.5 °F 26.6 °F 46% 30.06 in - East 5.8 mph - N/A   Clear
12:00 PM 52 °F - 24 °F 21% 30.10 in - ESE 2.3 mph - -  
12:00 PM 50.0 °F - 26.6 °F 40% 30.09 in - Variable 2.3 mph - N/A   Clear
1:00 PM 55 °F - 26 °F 20% 30.08 in 31 mi East 10.4 mph - -  
1:00 PM 53.6 °F - 26.6 °F 35% 30.06 in - East 9.2 mph - N/A   Clear
2:00 PM 58 °F - 26 °F 18% 30.04 in - NE 10.4 mph - -  
2:00 PM 57.2 °F - 28.4 °F 33% 30.04 in - ENE 10.4 mph - N/A   Clear
3:00 PM 60 °F - 27 °F 17% 30.02 in - ENE 12.7 mph - -  
3:00 PM 59.0 °F - 30.2 °F 34% 30.01 in - ENE 11.5 mph - N/A   Clear
4:00 PM 59.0 °F - 30.2 °F 34% 30.01 in - ENE 9.2 mph - N/A   Clear
5:00 PM 59 °F - 27 °F 18% 30.02 in - East 10.4 mph - -  
5:00 PM 59.0 °F - 28.4 °F 31% 30.01 in - East 9.2 mph - N/A   Clear
6:00 PM 55 °F - 27 °F 22% 30.04 in - East 3.5 mph - -  
6:00 PM 53.6 °F - 30.2 °F 41% 30.04 in - East 3.5 mph - N/A   Clear
7:00 PM 47 °F - 30 °F 39% 30.06 in 25 mi NNE 4.6 mph - -  
7:00 PM 44.6 °F 42.2 °F 30.2 °F 57% 30.04 in - NNE 4.6 mph - N/A   Clear
8:00 PM 45 °F - 31 °F 45% 30.07 in - ENE 6.9 mph - -  
8:00 PM 46.4 °F 42.9 °F 30.2 °F 53% 30.04 in - ENE 6.9 mph - N/A   Clear
9:00 PM 46 °F - 30 °F 42% 30.08 in - ENE 8.1 mph - -  
11:00 PM 43 °F - 29 °F 46% 30.11 in - East 2.3 mph - -